Location: Unspecified
(30.2330°N, 120.0460°E)
Time: 08:54:43
(UTC+00:00)

Daily predictions for brighter satellites

Satellite Brightness Start Highest point End
(mag) Time Altitude Azimuth Time Altitude Azimuth Time Altitude Azimuth
CZ-3A R/B 3.7 12:01:16 10° SSW 12:03:12 11° S 12:04:37 10° S
Cosmos 1842 Rocket 3.5 12:00:39 10° N 12:05:01 79° E 12:09:21 10° S
Cosmos 1356 Rocket 4.2 12:05:44 15° SSE 12:08:41 33° E 12:12:30 10° NNE
Sakura Rocket 4.4 12:00:19 10° WSW 12:09:22 74° S 12:15:48 10° E
Spot 1 4.2 12:07:51 17° SSE 12:10:49 52° ENE 12:14:52 10° N
Envisat 3.0 12:06:26 10° SSE 12:11:30 89° WSW 12:16:36 10° NNW
In-Cosmos 22 4.3 12:07:19 10° S 12:12:58 85° W 12:18:46 10° N
Meteor 1-24 Rocket 4.5 12:08:00 10° SSW 12:13:52 59° W 12:19:34 10° N
Atlas Centaur 2 0.9 12:13:41 10° W 12:17:25 80° S 12:19:22 25° ESE
SL-16 R/B 2.6 12:14:20 10° N 12:19:47 47° ENE 12:23:09 22° SE
SJ-11-01 4.3 12:17:26 14° SSE 12:21:34 89° ENE 12:26:20 10° NNW
Cosmos 1076 Rocket 3.7 12:18:48 17° SSE 12:22:00 51° E 12:26:14 10° NNE
Cosmos 1408 Rocket 4.4 12:21:36 24° ESE 12:22:58 30° E 12:26:42 10° NNE
USA 186 4.1 12:26:37 10° SW 12:27:56 14° W 12:29:13 10° WNW
USA 32 4.3 12:24:51 10° S 12:30:02 68° W 12:35:16 10° N
NOSS 3-4 (A) 3.9 12:22:55 10° NNW 12:30:10 88° ENE 12:35:33 22° SSE
NOSS 3-4 (C) 3.9 12:23:01 10° NNW 12:30:16 88° ENE 12:35:38 22° SSE
YAOGAN 6 2.5 12:28:47 28° SSE 12:30:33 78° E 12:34:12 10° N
Cosmos 1459 Rocket 4.3 12:26:42 10° N 12:32:43 47° E 12:35:56 26° SE
SPOT 5 4.1 12:33:07 22° E 12:34:30 25° ENE 12:38:32 10° NNE
Cosmos 2219 Rocket 4.2 12:30:11 10° NW 12:34:31 23° W 12:38:49 10° SSW
Cosmos 1570 Rocket 4.3 12:30:11 10° N 12:35:20 51° ENE 12:37:39 30° SE
Cosmos 2100 Rocket 4.2 12:30:43 10° N 12:36:56 57° E 12:40:31 26° SSE
Lacrosse 5 4.1 12:36:15 10° N 12:39:06 15° NE 12:41:49 10° ENE
Cosmos 1939 Rocket 3.8 12:37:25 15° SSW 12:40:25 45° W 12:44:18 10° NNW
Cosmos 1726 4.0 12:38:35 10° NE 12:40:28 17° ENE 12:40:28 17° ENE
Cosmos 2221 2.4 12:36:59 10° N 12:41:22 82° E 12:43:24 32° S
Cosmos 2061 Rocket 4.3 12:36:04 10° N 12:42:17 52° E 12:45:21 29° SE
Cosmos 2333 Rocket 4.1 12:38:06 10° NW 12:42:34 24° WSW 12:47:00 10° SSW
NOAA 11 4.3 12:42:19 31° SE 12:44:50 59° ENE 12:50:10 10° N
Okean 3 Rocket 4.3 12:41:22 10° SSW 12:45:46 53° W 12:50:10 10° N
Cosmos 2173 Rocket 4.0 12:41:36 10° N 12:47:43 64° E 12:50:49 30° SSE
Cosmos 2227 4.2 12:43:32 10° SSW 12:49:16 89° ESE 12:55:01 10° NNE
Cosmos 1766 Rocket 3.5 12:57:59 36° S 12:59:41 84° W 13:04:02 10° N
Cosmos 1674 4.0 12:59:21 17° SW 13:01:54 38° W 13:05:27 10° NNW
ERS-1 Rocket 3.0 13:01:45 37° S 13:03:48 76° WSW 13:08:50 10° NNW
MetOp-B 4.0 13:04:22 43° SSE 13:06:11 82° ENE 13:11:33 10° N
Meteor 2-17 Rocket 4.4 13:01:01 10° N 13:07:12 81° W 13:10:13 32° S
USA 245 3.8 13:08:27 42° NNE 13:08:27 42° NNE 13:11:22 10° N
YAOGAN 11 4.2 13:07:38 57° ESE 13:08:03 60° ENE 13:12:31 10° N
Skynet4D Del rocket 4.4 13:02:54 10° W 13:08:31 43° SSW 13:09:42 39° SSE
Cosmos 1725 Rocket 4.3 13:04:37 10° N 13:10:35 46° E 13:11:45 41° ESE
Cosmos 1802 Rocket 3.9 13:04:29 10° N 13:10:39 86° E 13:13:03 40° S
Cosmos 1328 Rocket 4.4 13:07:54 10° NNE 13:11:18 35° ENE 13:11:18 35° ENE
Terra 3.5 13:12:56 20° ENE 13:12:56 20° ENE 13:16:01 10° NNE
Cosmos 2263 Rocket 2.5 13:14:07 44° E 13:14:07 44° E 13:19:04 10° NE
Cosmos 1908 4.0 13:10:16 10° NNW 13:14:00 47° W 13:14:38 42° SW
H-2A R/B 2.4 13:14:02 46° E 13:14:42 48° ENE 13:19:53 10° N
Cosmos 1743 Rocket 3.7 13:16:21 57° ENE 13:16:21 57° ENE 13:20:09 10° NNE
H-2A R/B 4.3 13:16:54 14° NE 13:16:54 14° NE 13:18:21 10° NE
SL-08 RB Rocket 3.6 13:16:50 65° E 13:17:01 66° ENE 13:21:34 10° N
Delta 2 Rocket 4.2 13:14:39 10° WSW 13:20:24 76° NNW 13:24:32 20° ENE
Cosmos 2228 Rocket 3.7 13:18:10 10° N 13:22:02 44° ENE 13:22:02 44° ENE
Meteor 2-2 Rocket 4.3 13:17:55 10° N 13:23:43 66° E 13:24:37 57° SE
Cosmos 332 Rocket 4.1 13:22:44 10° N 13:27:22 54° ENE 13:27:22 54° ENE
Cosmos 1818 3.9 13:23:40 10° NW 13:28:57 54° WSW 13:29:56 47° SSW
Cosmos 1864 Rocket 4.4 13:27:14 10° N 13:33:36 74° E 13:34:40 61° SE
Cosmos 1242 Rocket 4.3 13:30:41 10° NW 13:33:50 27° W 13:33:59 27° W
Cosmos 2016 Rocket 4.2 13:32:26 10° NNW 13:38:37 66° W 13:40:25 45° SSW
Cosmos 1603 3.5 13:41:25 10° NNW 13:47:04 87° WSW 13:47:13 85° SSW
Cosmos 1354 Rocket 4.5 13:53:25 50° NE 13:53:25 50° NE 13:57:22 10° NNE
ARGOS 4.0 13:52:07 39° SW 13:53:01 42° W 13:58:08 10° NNW
SL-19 R/B 4.3 13:48:12 10° NNE 13:52:55 62° ENE 13:52:55 62° ENE
Cosmos 2058 4.2 13:55:17 36° N 13:55:17 36° N 13:57:51 10° N
Milstar 3 Cent rocket 4.2 13:48:47 10° W 13:57:17 53° SSW 14:01:13 44° SSE
DMSP B5D2-2 4.4 13:53:33 10° N 13:58:41 61° WNW 13:59:04 59° W
Cosmos 1943 3.5 13:57:14 10° N 14:02:14 56° NE 14:02:14 56° NE
Cosmos 2233 Rocket 3.8 13:57:08 10° N 14:03:14 80° ENE 14:03:14 80° ENE
SL-16 R/B 4.2 13:59:52 10° WNW 14:03:25 17° W 14:05:03 15° WSW
Cosmos 1814 Rocket 4.2 13:58:17 10° NNW 14:03:03 67° NW 14:03:03 67° NW
Sakura Rocket 4.0 13:56:40 10° W 14:03:15 65° WSW 14:03:15 65° WSW
Cosmos 1626 4.5 14:07:35 21° N 14:07:35 21° N 14:08:57 10° N
SPOT 1/Viking Rocket 4.4 14:10:01 42° W 14:10:01 42° W 14:14:41 10° NNW
RESURS DK-1 4.2 14:07:10 10° NW 14:09:32 29° NW 14:09:32 29° NW
Cosmos 841 Rocket 4.0 14:09:04 10° NNW 14:13:08 55° N 14:13:08 55° N
Cosmos 1763 Rocket 4.1 14:11:18 10° NNW 14:15:13 52° NW 14:15:13 52° NW
Cosmos 371 Rocket 4.3 14:12:57 10° NNW 14:16:26 41° WNW 14:16:26 41° WNW
Meteor 2-12 Rocket 4.5 14:16:08 10° N 14:21:39 74° NNW 14:21:39 74° NNW
Lacrosse 5 2.8 14:17:31 10° NW 14:21:00 45° NW 14:21:00 45° NW
Cosmos 2285 Rocket 4.3 14:42:25 10° NNW 14:47:42 64° NNW 14:47:42 64° NNW
Terra 3.7 14:51:49 24° WNW 14:51:49 24° WNW 14:54:18 10° NW
H-2A R/B 4.4 14:54:02 21° NW 14:54:02 21° NW 14:55:39 10° NNW
H-2A R/B 4.3 14:54:40 15° W 14:54:40 15° W 14:57:24 10° WNW
Cosmos 2263 Rocket 4.3 14:55:43 16° W 14:57:53 19° WNW 15:01:47 10° NNW
CZ-4C R/B 3.4 15:12:22 36° N 15:12:22 36° N 15:16:06 10° NNE
CZ-2C R/B 4.3 15:25:24 43° N 15:25:24 43° N 15:29:10 10° N
Cosmos 1844 Rocket 4.0 15:33:20 35° NNW 15:33:20 35° NNW 15:36:48 10° N
Cosmos 2278 Rocket 3.6 16:27:23 33° NNW 16:27:23 33° NNW 16:30:51 10° N
Cosmos 1833 Rocket 4.4 16:30:14 10° N 16:34:33 26° ENE 16:34:33 26° ENE
ATLAS 3B R/B 3.2 16:40:10 58° ENE 16:40:10 58° ENE 16:46:06 10° NE
Cosmos 2082 Rocket 3.2 16:59:46 10° N 17:03:54 43° NNE 17:03:54 43° NNE
Resurs 1-4 Rocket 4.1 17:13:33 10° NE 17:16:47 19° E 17:16:47 19° E
Cosmos 2344 4.0 17:26:09 46° ESE 17:26:32 46° ESE 17:33:57 10° NE
Cosmos 1092 Rocket 4.5 17:35:00 50° NW 17:35:00 50° NW 17:40:04 10° N
USA 238 DEB 3.8 17:36:16 64° NW 17:36:16 64° NW 17:43:07 10° NNE
USA 238 3.8 17:36:22 65° NW 17:36:22 65° NW 17:43:13 10° NNE
Timation 2 Rocket 4.3 17:30:54 10° NNW 17:36:57 60° ENE 17:37:21 59° E
CZ-2D R/B 3.3 17:36:21 10° NE 17:41:03 34° E 17:41:03 34° E
Cosmos 2026 Rocket 4.0 17:44:22 71° NNW 17:44:22 71° NNW 17:49:45 10° N
Milstar 3 3.8 17:51:33 44° SSE 17:51:49 44° SSE 18:03:23 10° E
SL-08 R/B 3.9 18:02:52 56° N 18:02:52 56° N 18:06:40 10° N
COBE Rocket 4.3 17:59:42 10° N 18:03:44 62° NNE 18:03:44 62° NNE
Cosmos 1943 Rocket 3.1 18:05:31 37° ESE 18:06:02 38° ESE 18:11:12 10° NE
NPP 4.2 18:07:10 10° N 18:11:43 46° NW 18:11:43 46° NW
ADEOS Rocket 3.2 18:05:52 10° N 18:13:18 75° WNW 18:14:25 63° SW
NOSS 3-2 (A) 3.4 18:15:14 65° WNW 18:15:33 66° WNW 18:21:52 10° NNE
NOSS 3-2 (C) 3.2 18:15:59 80° SW 18:16:22 89° NW 18:22:43 10° NNE
H-2A R/B 4.4 17:03:24 10° WSW 18:16:41 79° SSE 18:24:07 10° E
SeaSat 1 2.6 18:17:42 63° NW 18:17:42 63° NW 18:21:50 10° NNW
USA 267 3.4 18:10:40 10° NE 18:17:05 57° SE 18:18:10 51° SSE
Cosmos 2369 Rocket 2.0 18:17:38 82° WNW 18:17:38 82° WNW 18:23:17 10° NNE
Cosmos 1833 Rocket 4.3 18:13:49 10° NW 18:16:12 22° WNW 18:16:12 22° WNW
Cosmos 1428 Rocket 4.5 18:20:13 60° W 18:20:22 60° W 18:26:31 10° N
Cosmos 1655 Rocket 4.3 18:24:10 49° W 18:24:16 49° W 18:30:19 10° N
BREEZE-M DEB (TANK) 4.4 18:25:12 16° N 18:25:12 16° N 18:26:59 10° NNE
Meteor 1-20 Rocket 4.1 18:25:09 72° WSW 18:25:31 75° W 18:31:22 10° N
CENTAUR R/B 3.6 18:24:34 26° SE 18:26:19 30° ESE 18:31:43 10° NE
Geosat 4.3 18:23:36 10° NNE 18:28:26 53° WNW 18:28:26 53° WNW
ATLAS 3B R/B 4.4 18:27:24 19° WNW 18:30:03 22° NW 18:35:31 10° N
Okean 2 Rocket 3.6 18:31:12 49° NNW 18:31:12 49° NNW 18:34:40 10° N
CZ-3B DEB 3.8 18:21:14 10° NW 18:34:20 84° SW 18:44:20 10° SSE
ADEOS 3.4 18:30:27 10° N 18:35:41 81° WNW 18:36:11 72° SW
SL-16 R/B 2.4 18:34:42 47° S 18:36:42 83° WSW 18:42:58 10° NNW
Meteor 1-18 Rocket 4.0 18:32:48 10° N 18:38:22 81° W 18:39:23 60° S
Cosmos 2263 4.1 18:39:11 62° SW 18:40:05 75° WNW 18:45:53 10° NNE
Cosmos 1125 Rocket 4.1 18:42:02 41° WNW 18:42:09 41° WNW 18:47:08 10° N
Cosmos 2266 Rocket 4.0 18:45:38 47° SSW 18:47:38 77° W 18:54:02 10° N
BREEZE M DEB (TANK) 3.9 18:51:06 18° NNE 18:51:06 18° NNE 18:51:52 10° NNE
ARIANE 5 R/B 2.7 18:47:36 10° N 18:52:23 48° WNW 18:52:51 46° W
CZ-3A R/B 3.5 18:51:39 38° SSW 18:53:43 44° S 19:25:06 10° ESE
MOZ.5/SAFIR/RUBIN 5/SL-8 4.3 18:51:10 23° SSE 18:54:04 60° ENE 18:58:44 10° N
Resurs 1-4 Rocket 2.7 18:52:14 10° N 18:57:09 39° WNW 18:57:52 37° W
Cosmos 1441 Rocket 3.7 18:55:49 10° N 18:59:45 59° E 19:01:19 33° SSE
Cosmos 2315 Rocket 4.5 18:53:51 10° N 19:00:02 60° E 19:06:09 10° SSE
Okean 1 3.5 18:57:27 10° NNW 19:01:08 54° WNW 19:01:08 54° WNW
S3M 4.3 18:56:45 10° NNW 19:02:29 43° W 19:03:46 38° WSW
IRS-1D 4.4 19:03:00 10° NNW 19:07:20 29° WNW 19:07:58 29° W
BREEZE-M DEB (TANK) 4.2 19:04:50 22° WSW 19:09:24 38° NW 19:12:55 10° NNE
Okean O Rocket 3.6 19:06:53 10° NE 19:10:32 25° E 19:14:09 10° SSE
COSMOS 2455 3.3 19:11:46 32° WSW 19:13:55 45° WNW 19:19:40 10° N
CCE 1 Rocket 3.6 19:14:52 45° S 19:14:52 45° S 19:18:26 10° ESE
BREEZE-M DEB (TANK) 4.0 19:03:44 10° NW 19:17:00 85° NE 19:21:53 10° SE
Cosmos 2151 Rocket 4.3 19:18:23 34° W 19:18:57 35° W 19:23:07 10° NNW
CZ-2D R/B 3.4 19:16:47 10° NNW 19:21:02 24° WNW 19:22:22 22° W
UNKNOWN OBJECT B 3.5 19:19:01 10° N 19:22:21 32° WNW 19:22:32 32° W
Cosmos 1269 Rocket 4.2 19:17:29 10° NNW 19:22:36 51° WSW 19:25:30 24° SSW
Cosmos 158 Rocket 4.1 19:18:44 10° NNW 19:23:31 44° WSW 19:25:20 31° SSW
deb Kosmos-1763 4.0 19:22:30 10° NNW 19:26:16 89° ENE 19:29:23 14° SSE
CZ-4B R/B 4.5 19:23:15 10° NNE 19:28:26 38° E 19:33:39 10° SSE
Cosmos 405 Rocket 4.0 19:28:09 10° NW 19:31:00 24° W 19:31:00 24° W
CZ-4B R/B 3.4 19:29:52 10° NNE 19:33:23 47° E 19:36:11 15° S
Cosmos 1536 Rocket 3.9 19:31:40 10° NNW 19:35:56 46° W 19:38:11 25° SSW
Meteor 2-4 Rocket 3.6 19:31:51 10° N 19:37:27 89° E 19:42:51 10° S
Meteor 1-5 Rocket 4.3 19:42:14 15° SSW 19:47:16 70° W 19:53:14 10° N
ASTRO E2 2.8 19:44:11 15° W 19:47:22 76° N 19:51:22 10° E
PSLV R/B 3.8 19:43:20 10° NNE 19:47:34 66° E 19:51:51 10° S
ADEOS II 2.1 19:43:08 10° NNE 19:48:25 87° WNW 19:53:34 11° SSW
MOS 1-B 4.5 19:42:48 10° N 19:48:28 58° WNW 19:53:07 15° SSW
Cosmos 1943 Rocket 3.6 19:47:03 16° W 19:49:49 23° WNW 19:54:10 10° N
USA 161 1.5 19:49:47 36° WSW 19:49:53 36° W 19:52:14 10° NNW
Cosmos 1500 4.2 19:49:49 10° SSE 19:53:24 44° E 19:56:59 10° NNE
Meteor 1-23 Rocket 4.3 19:48:28 10° N 19:54:17 87° W 20:00:00 10° S
Cosmos 1745 Rocket 4.1 19:48:01 10° S 19:54:22 85° E 20:00:42 10° N
BREEZE-M R/B 2.7 19:52:53 10° NW 19:56:54 63° NE 19:59:26 10° ESE
USA 267 4.3 19:54:02 10° NNE 19:59:47 34° NW 20:05:31 10° W
Okean 1 Rocket 3.9 19:58:02 18° SW 20:00:44 33° W 20:04:46 10° NNW
OAO 2 Rocket 3.4 19:58:05 17° WSW 20:02:08 82° SSE 20:07:23 10° ENE
Cosmos 1536 4.3 20:01:41 16° WSW 20:03:21 21° WNW 20:06:25 10° NNW
Okean 1-7 Rocket 3.5 19:59:07 10° N 20:03:34 82° W 20:07:57 10° S
Cosmos 1656 Rocket 4.3 20:02:23 15° SW 20:06:18 37° WNW 20:11:18 10° N
Tiangong 2 1.1 20:07:30 16° WSW 20:09:54 78° NNW 20:13:08 10° NE
BREEZE-M DEB (TANK) 2.3 20:09:40 10° WNW 20:12:40 51° SW 20:15:26 10° SE
Abrixas 4.5 20:10:21 10° NNW 20:12:48 29° NE 20:15:14 10° ESE
CENTAUR R/B 3.4 20:11:46 12° WSW 20:16:43 34° NW 20:22:39 10° NNE
Cosmos 1544 Rocket 3.6 20:15:27 10° S 20:19:46 85° E 20:24:05 10° N
BREEZE-M DEB (TANK) 4.3 20:18:46 10° S 20:20:47 18° SE 20:23:25 10° E
Landsat 4 3.9 20:18:58 10° S 20:22:39 50° W 20:26:22 10° NNW
Lacrosse 4 Rocket 4.0 20:19:27 10° N 20:23:22 28° ENE 20:27:13 10° ESE
IRS-1C Rocket 4.2 20:18:13 10° N 20:23:25 61° WNW 20:28:34 10° SSW
Okean 2 3.6 20:22:39 10° NNW 20:26:44 53° W 20:30:47 10° S
Cosmos 2219 3.8 20:21:27 10° NNW 20:27:08 64° ENE 20:32:48 10° SSE
Cosmos 2251 Rocket 3.9 20:24:08 10° NNW 20:29:03 42° W 20:33:57 10° S
CZ-4B R/B 4.3 20:26:00 10° NNE 20:30:23 77° ESE 20:34:52 10° S
Cosmos 1975 2.9 20:28:32 10° SSW 20:32:32 62° W 20:36:36 10° N
